Location: Pontbriand
(46.1542°N, 71.2542°W)
Time: 22:57:05
(UTC+00:00)

Envisat - Pass Details

Date: 01 December 2021
Orbit: 764 x 766 km, 98.2° (Epoch: 19 January)

Event Time Altitude Azimuth Distance (km) Brightness Sun altitude
Rises 09:03:59 0° 22° (NNE) 3,244 6.5 -31.0°
Reaches altitude 10° 09:06:31 10° 32° (NNE) 2,313 5.8 -30.5°
Maximum altitude 09:11:06 33° 95° (E) 1,280 4.6 -29.8°
Drops below altitude 10° 09:15:38 10° 159° (SSE) 2,296 5.7 -29.0°
Sets 09:18:08 0° 169° (S) 3,217 6.4 -28.5°
